Terminal Aerodrome Forecast
Issued by NWS Billings, MT

Home | Current Version | Previous Version | Graphics & Text | Print | Product List | Glossary On
Versions: 1 2 3 4 5 6 7 8 9 10 11 12 13 14 15 16 17 18 19 20 21 22 23 24 25 26 27 28 29 30 31 32 33 34 35 36 37 38
000
FTUS45 KBYZ 270050 AAA
TAFMLS
TAF AMD
KMLS 270050Z 2701/2724 07011KT P6SM VCSH SCT100 BKN150
      TEMPO 2701/2703 VRB23G33KT -SHRA
     FM270800 36011KT P6SM SCT150
     FM272200 32025G35KT P6SM VCTS SCT070 BKN100CB=

USA.gov is the U.S. government's official web portal to all federal, state and local government web resources and services.